Showing default

NOAA 3, 6920

Orbit data source: Space-Track

NOAA 3, 6920 is a payload satellite owned by NOAA (US) in SSO that was launched on Tue, 06 Nov 1973 UTC via a DELTA 0300 launch vehicle from the Air Force Western Test Range (AFWTR). Payload-class satellites include a variety of spacecraft equipped with specific instruments for various scientific and technological missions. These include communications satellites like Starlink; space stations such as the ISS; scientific satellites like the Hubble; Earth observation satellites from companies like Planet Labs, Umbra, and HawkEye 360; GPS; miniature CubeSats for education and research; and military/defense satellites.

Loading next visibility...
Identifier
6920, 1973-086A
Orbit
SSO
Country
Flag of USUS
Related business
Manufacturer
RCA/East Windsor
Mission
Non-operational spacecraft
Bus & Motor
TIROS M, Unknown motor
Mass
340 kg wet, 340 kg dry
Launch date (UTC)
1973-11-06 (52 years ago)
Launch vehicle
DELTA 0300
Launch site
Air Force Western Test Range (AFWTR)
Object type
Payload
Rocket body
Debris
Shape & HBR
Unknown
Radar Cross Section
Large (>1 m²)

Expand to show TLE details & history
Last TLE update: 14 hours ago

TLE from 14 hours ago
0 NOAA 3
1 06920U 73086A   25347.28105671 -.00000020  00000-0  19426-3 0  9990
2 06920 102.2910 354.4300 0006444 107.3419 264.1377 12.40388895358853
Epoch: 2025-12-13T06:44Z
TLE epoch observation values (Epoch: 2025-12-13T06:44:43.299Z)
Latitude
11.09977°
Longitude
168.60121°
Altitude
1,507.267 km
Speed
7.112 km/s
True Right ascension
23h 27m 58s
True Declination
11° 02' 28"
Sunlit
Object was in daylight at epoch
Visualization orbit readout
Latitude
Unknown
Longitude
Unknown
Altitude
Unknown
Speed
Unknown
Apparent Right ascension
Unknown
Apparent Declination
Unknown
Sunlit
N/A
Visualization observer readout
Local Sidereal Time
19:02:48
Azimuth
Unknown
Elevation
Unknown
Doppler factor
Unknown
Orbital elements
Apogee altitude
1,507.625 km
Perigee altitude
1,497.468 km
Semi-major axis
7,880.684 km
Eccentricity
0.00064
Inclination
102.291°
RAAN
354.43°
Arg. of periapsis
107.3419°
True anomaly
264.06425°
Mean anomaly
264.1377°
Eccentric anomaly
264.10097°
Mean motion
3.1024 °/min
Orbital period
116.04 mins
BSTAR
0.00019426
Loading maneuver chart data...
Computing Atmospheric mass density...
Loading historical data...
Loading historical data...
Loading historical data...
Loading historical data...
Loading historical data...
Loading historical data...
Loading historical data...

Documentation

Showing up to 5 results
|